Location: Caltech
(34.1382°N, 118.1253°W)
Time: 04:23:10
(UTC-07:00)

Cosmos 2360 Rocket - Visible Passes

Search period start: 06 July 2015 00:00
Search period end: 16 July 2015 00:00
Orbit: 833 x 846 km, 71.0° (Epoch: 05 July)

Date Brightness Start Highest point End Pass type
(mag) Time Alt. Az. Time Alt. Az. Time Alt. Az.
06 Jul 4.4 00:48:22 10° WNW 00:50:02 14° WNW 00:50:02 14° WNW visible
06 Jul 2.5 22:47:10 10° N 22:52:39 51° ENE 22:52:59 50° ENE visible
07 Jul 4.3 00:32:31 10° WNW 00:34:45 16° W 00:34:45 16° W visible
07 Jul 2.6 22:31:34 10° N 22:37:00 47° ENE 22:37:43 45° E visible
08 Jul 4.2 00:16:43 10° WNW 00:19:29 18° W 00:19:29 18° W visible
08 Jul 2.7 22:15:59 10° N 22:21:20 44° ENE 22:22:30 39° E visible
09 Jul 4.0 00:00:54 10° NW 00:04:16 20° W 00:04:16 20° W visible
09 Jul 2.8 22:00:24 10° N 22:05:41 41° ENE 22:07:19 34° ESE visible
09 Jul 3.9 23:45:08 10° NW 23:49:05 22° W 23:49:05 22° W visible
10 Jul 2.9 21:44:49 10° N 21:50:02 38° ENE 21:52:10 28° ESE visible
10 Jul 3.8 23:29:22 10° NW 23:33:50 24° WSW 23:33:56 24° WSW visible
11 Jul 3.0 21:29:14 10° N 21:34:23 36° ENE 21:37:02 24° ESE visible
11 Jul 3.7 23:13:37 10° NW 23:18:14 26° WSW 23:18:50 25° WSW visible
12 Jul 3.1 21:13:40 10° N 21:18:43 34° ENE 21:21:58 19° ESE visible
12 Jul 3.6 22:57:53 10° NW 23:02:37 27° WSW 23:03:45 25° WSW visible
13 Jul 3.2 20:58:06 10° N 21:03:03 31° ENE 21:06:57 15° ESE visible
13 Jul 3.6 22:42:09 10° NW 22:47:00 29° WSW 22:48:44 25° SW visible
14 Jul 3.3 20:42:32 10° N 20:47:23 29° ENE 20:51:59 11° ESE visible
14 Jul 3.5 22:26:26 10° NW 22:31:23 32° WSW 22:33:46 23° SW visible
15 Jul 3.3 20:26:59 10° N 20:31:43 28° ENE 20:36:30 10° ESE visible
15 Jul 3.4 22:10:43 10° NW 22:15:46 34° WSW 22:18:51 20° SSW visible
